Regional Weather Roundup
Issued by NWS

Home | Current Version | Previous Version | Graphics & Text | Print | Product List | Glossary Off
Versions: 1 2 3 4 5 6 7 8 9 10 11 12 13 14 15 16 17 18 19 20 21 22 23 24 25 26 27 28 29 30 31 32 33 34 35 36 37 38 39 40 41 42 43 44 45 46 47 48 49 50

000
ASUS43 KTOP 191108
RWRKS

WEATHER ROUNDUP FOR KANSAS
NATIONAL WEATHER SERVICE GOODLAND KS
500 AM CST FRI DEC 19 2014

NOTE:  "FAIR" INDICATES FEW OR NO CLOUDS BELOW 12,000 FEET WITH NO
SIGNIFICANT WEATHER AND/OR OBSTRUCTIONS TO VISIBILITY.

KSZ001>006-013>018-027>032-041>047-191200-
NORTHWEST KANSAS

CITY           SKY/WX    TMP DP  RH WIND       PRES   REMARKS
GOODLAND       CLEAR     25  21  85 W9        30.08F
HAYS           CLOUDY    32  25  74 SE3       30.15F
HILL CITY      CLOUDY    33  30  88 CALM      30.14F
RUSSELL        CLOUDY    31  30  96 S7        30.15F
$$

KSZ061>065-074>080-084>089-191200-
SOUTHWEST KANSAS

CITY           SKY/WX    TMP DP  RH WIND       PRES   REMARKS
DODGE CITY     FOG       33  31  92 S3        30.13F VSB 1
ELKHART          N/A     32  27  82 SW2         N/A
GARDEN CITY    CLOUDY    29  29 100 SW5       30.12F FOG
GREAT BEND     CLOUDY    30  27  86 CALM      30.17F
LIBERAL        CLOUDY    36  32  87 CALM      30.14F
PRATT          CLOUDY    32  32 100 CALM      30.17F FOG
$$

KSZ066>073-081>083-090>101-191200-
SOUTHEAST KANSAS

CITY           SKY/WX    TMP DP  RH WIND       PRES   REMARKS
CHANUTE        CLOUDY    33  32  96 N6        30.22S FOG
COFFEYVILLE    CLOUDY    35  33  92 N6        30.21F FOG
HUTCHINSON     CLOUDY    31  28  89 E3        30.19F FOG
MEDICINE LODGE   N/A     33  32  96 CALM      30.17F
NEWTON         CLOUDY    28  23  80 NE3       30.20F
PARSONS        CLOUDY    35  33  92 N7        30.21F
WICHITA INTL   CLOUDY    31  28  89 NE5       30.20F FOG
WICHITA JABRA  CLOUDY    29  28  96 NE3       30.20F
WICHITA MCCONL CLOUDY    30  29  96 NE3       30.20F
WINFIELD       CLOUDY    32  31  96 N8        30.20F
$$

KSZ007>012-019>026-033>040-048>060-102>105-191200-
NORTHEAST KANSAS

CITY           SKY/WX    TMP DP  RH WIND       PRES   REMARKS
CONCORDIA      CLOUDY    29  28  96 S6        30.19F
EMPORIA        CLOUDY    29  28  96 N3        30.22F FOG
LAWRENCE       CLOUDY    32  28  85 N3        30.25S
MANHATTAN      CLOUDY    31  28  89 CALM      30.23F
MARYSVILLE     CLOUDY    32  28  86 SW3       30.21F
OLATHE IND     CLOUDY    31  29  92 CALM      30.24S
OLATHE EXE     CLOUDY    31  29  92 CALM      30.23S
SALINA         CLOUDY    30  28  92 SE5       30.21F FOG
TOPEKA BILLARD CLOUDY    31  29  92 VRB3      30.25F
TOPEKA FORBES  CLOUDY    31  28  89 W3        30.24S FOG
$$


USA.gov is the U.S. government's official web portal to all federal, state and local government web resources and services.